Simultaneous Nadir Overpasses (SNOs) Predictions

Prediction of SNOs between LANDSAT-8 and METOP-B Satellite Orbit:

Table of predicted SNOs for the next 14.0 days since TLE Epoch: 11/29/2014
Index Date (LANDSAT-8) Time (LANDSAT-8) Lat,Lon (LANDSAT-8) SZA (LANDSAT-8 ) Date (METOP-B) Time (METOP-B) Lat,Lon (METOP-B) SZA (METOP-B ) Distance(km) Time Diff (sec)
1 12/01/2014 08:27:17 81.04, 91.77 104.94 12/01/2014 08:26:36 81.05, 91.88 104.93 1.87 41
2 12/01/2014 09:16:43 -81.07,-100.26 75.01 12/01/2014 09:17:16 -81.07,-100.27 75.00 0.15 33
3 12/04/2014 04:01:31 81.04, 158.22 105.32 12/04/2014 04:01:01 81.04, 158.04 105.28 3.20 30
4 12/04/2014 04:50:57 -81.07, -33.81 74.63 12/04/2014 04:51:40 -81.07, -33.70 74.60 1.94 43
5 12/06/2014 23:35:43 81.05,-135.29 105.65 12/06/2014 23:35:24 81.04,-135.47 105.62 3.17 19
6 12/07/2014 00:25:09 -81.07, 32.69 74.30 12/07/2014 00:26:03 -81.08, 32.82 74.26 2.38 54
7 12/09/2014 19:09:55 81.05, -68.76 105.92 12/09/2014 19:09:47 81.06, -68.65 105.93 1.97 8
8 12/09/2014 19:59:21 -81.08, 99.23 74.03 12/09/2014 20:00:27 -81.08, 99.30 73.99 1.25 66
9 12/12/2014 13:54:41 -81.04,-170.16 73.92 12/12/2014 13:53:33 -81.03,-170.26 73.96 1.91 68




NCC Satellite Simultaneous Nadir Overpasses (SNOs) Prediction Service
